PARASOL

Satellite information

Favourite Embed

Satellite Type and Status

PAYLOADIN ORBIT

Key statistics

Satellite PARASOL at a glance.

Uptime

7616

Days in orbit

Revolutions

≈ 14.7

Per day

Orbit

SSO

Sun Synchronous Orbit

Inclination

98.5

Latest

Satellite identification and parameters

Extended collection of information and parameters for PARASOL.

Object identification

Identified? True

Debris? False

Object name: PARASOL

International designator: 2004-049G

Object number (NORAD): 28498

Object ID (CCSDS): 28498

Country: FRANCE (FR)

Current information (Y/N): Y

RCS size: MEDIUM

Orbital parameters

Period: 97.692 minutes

Inclination: 98.4996 deg

SMA: 7026.401 km

Apoapsis: 658.975 km

Periapsis: 637.557 km

RAAN: 111.7429 deg

Eccentricy: 0.0015241

Argument of periapsis: 56.2978 deg

Mean anomaly: 303.9679 deg

Mean motion: 14.74020064 rev/day

Mean motion (dot): 0.00001697 rev/day2

B* drag term: 0.00026615 1/REarth

Two-line elements (TLE)

Creation date: Oct. 23, 2025, 10:16 p.m.

Reference frame: TEME

Reference center: EARTH

Epoch: Oct. 23, 2025, 1:45 p.m. UTC

TLE line 0: 0 PARASOL

TLE line 1: 1 28498U 04049G 25296.57331778 .00001697 00000-0 26615-3 0 9999

TLE line 2: 2 28498 98.4996 111.7429 0015241 56.2978 303.9679 14.74020064114374

Live tracking on map

Real-time ground track for satellite PARASOL.

In-orbit conjunctions

A list of the most updated potential collisions computed for object PARASOL.

Target Orbit TCA Probability of collision Miss distance Type
FENGYUN 1C DEB SSO 2025-09-10 12:22:05 0.0001781714 642.0 (m) DEBRIS
NOAA 17 DEB SSO 2025-02-02 09:53:07 0.0001044954 495.0 (m) DEBRIS
FENGYUN 1C DEB SSO 2024-11-20 18:15:52 0.0001088193 653.0 (m) DEBRIS
CZ-6A DEB LEO 2024-11-13 15:10:07 0.0001310009 939.0 (m) DEBRIS
CZ-2C R/B LEO 2024-05-30 17:22:23 0.0001500781 980.0 (m) ROCKET BODY

Associated space launch

Helios and Essaim are French miltary satellites for observation of Earth. Parasol is an Earth Observation research satellite.Nanosat 01 is a small technologu demonstator for the spanish space agency INTA.

PARASOL was lifted into orbit during the mission ‘Ariane 5 G+ | Helios 2A, Essaim 1, 2, 3, 4, PARASOL, Nanosat 01’, on board a Ariane 5 G+ space rocket.

The launch took place on Dec. 18, 2004, 4:26 p.m. from Ariane Launch Area 3.

For more information about the launch, click the button.

Launch to space Ariane 5 G+ | Helios 2A, Essaim 1, 2, 3, 4, PARASOL, Nanosat 01
Ariane 5 G+ | Helios 2A, Essaim 1, 2, 3, 4, PARASOL, Nanosat 01

Agency: N/A

Status: Launch Successful

Launch date: Dec. 18, 2004, 4:26 p.m. UTC

Rocket: Ariane 5 G+

Launch pad: Ariane Launch Area 3

Location: Guiana Space Centre, French Guiana

...

Latest news about this satellite

There are no fresh news available about this satellite. Check back as we update our databases every day.


Newsletter sign-up

Weekly statistics, charts and insights to help you stay on top of the space industry.